Regional Weather Roundup
Issued by NWS Pendleton, OR

Home | Current Version | Previous Version | Text Only | Print | Product List | Glossary On
Versions: 1 2 3 4 5 6 7 8 9 10 11 12 13 14 15 16 17 18 19 20 21 22 23 24 25 26 27 28 29 30 31 32 33 34 35 36 37 38 39 40 41 42 43 44 45 46 47 48 49 50
000
ASUS46 KPDT 300125
RWRPDT
PENDLETON REGIONAL WEATHER ROUNDUP
NATIONAL WEATHER SERVICE PENDLETON OREGON
600 PM PDT SUN MAY 29 2016

NOTE: FAIR INDICATES FEW OR NO CLOUDS BELOW 12,000 FEET WITH NO
SIGNIFICANT WEATHER AND/OR OBSTRUCTIONS TO VISIBILITY.

# INDICATES UNOFFICIAL STATION AND DATA

WAZ520-300210-
EAST SLOPES OF WASHINGTON CASCADES

CITY            SKY/WX      TMP DP  RH  WIND    PRES   REMARKS
#BUMPING DAM    N/A          0  -14 50  W13     N/A    WCI -18
#CLE ELUM HS    N/A         56  38  51  W10     30.06R
#CLE ELUM 2NW   N/A         55  36  49  S3      N/A
#CLIFFDEL 2NW   N/A         25  10  52  W6      N/A
#GLENWOOD       N/A         63  46  54  S7      30.01R
#MANASTASH CYN  N/A         55  37  51  CALM    30.05R
#NELSON 3SW     N/A         50  41  71  CALM    30.28R
#NILE           N/A         60  41  49  SW5     29.31R
#RONALD 2NW     N/A         56  N/A N/A NW1     29.98R
#TEANAWAY 4NE   N/A         59  40  49  SW3     N/A
#TROUT LAKE 1NE N/A         61  45  56  NW10    30.07R
#TROUT LAKE 1E  N/A         61  43  51  CALM    30.06R
$$

WAZ521-300210-
SIMCOE HIGHLANDS

CITY            SKY/WX      TMP DP  RH  WIND    PRES   REMARKS
#CENTERVILLE 1SWN/A         62  43  50  W22     30.00R
#GOLDENDALE     N/A          0  -8  68  NW3     N/A
#GOLDENDALE 1NE N/A         66  29  25  SW7     N/A
#GOLDENDALE 4W  N/A         67  48  50  SW21    30.09R
#GOODNOE HILLS  N/A         68  42  39  NW30    29.94R
#LYLE 6NE       N/A         62  45  54  SW17G30 30.01S
$$

WAZ026-300210-
KITTITAS VALLEY

CITY            SKY/WX      TMP DP  RH  WIND    PRES   REMARKS
ELLENSBURG AP   SUNNY       62  41  46  W25G35  30.07R
#ELLENSBURG CWU N/A         61  42  50  N17     29.99R
#ELLENSBURG 3NE N/A         58  42  55  N12G24  30.07R
#ELLENSBURG     N/A         62  44  52  W7      N/A
#ELLENSBURG 1E  N/A         60  N/A N/A NW5     N/A
#ELLENSBURG 13S N/A         65  42  43  E3      N/A
#KITTITAS 4N    N/A         60  41  49  NW12    30.10R
#KITTITAS 3S    N/A         60  43  53  NW17G29 30.02R
#THORP 6N       N/A         55  41  59  W18G31  30.07R
$$

WAZ027-300210-
YAKIMA VALLEY

CITY            SKY/WX      TMP DP  RH  WIND    PRES   REMARKS
SUNNYSIDE AP    SUNNY       72  42  34  W14     29.98R
YAKIMA AIRPORT  SUNNY       73  38  28  NW18G24 30.02R
YAKIMA-VAGABOND SUNNY       69  37  31  N18G25  30.01R
#DONALD 2NE     N/A         74   3   6  W6      28.86R
#GRANDVIEW      N/A         76  37  24  NW3     29.96R
#MABTON         N/A         74  45  35  NW15    29.96R
#NACHES 2SW     N/A         64  42  45  W12     30.04R
#TERRACE HTS    N/A         72  41  33  N8      29.96R
#TOPPENISH      N/A         72  41  33  N15     29.89R
#W YAKIMA       N/A         67  42  40  W6      30.00R
#WHITE SWAN 5E  N/A         71  44  38  W9      29.98R
#WILEY CITY 3W  N/A         68  34  28  W1      30.00R
$$

WAZ028-300210-
LOWER COLUMBIA BASIN...WASHINGTON

CITY            SKY/WX      TMP DP  RH  WIND    PRES   REMARKS
PASCO           PTCLDY      77  42  29  N15     29.95R
PROSSER AWOS    N/A         75  41  29  W9      29.99R
RICHLAND AWOS   PTCLDY      77  40  26  NW22G28 29.96R
#BENTON CITY    N/A         74  41  30  N9      29.85R
#CONNELL 5N     N/A         74  40  29  W7      29.94R
#CONNELL 5NW    N/A         71  41  34  W13     29.90R
#ELTOPIA 6NW    N/A         74  43  33  W13     28.94R
#KAHLOTUS       N/A         72  41  33  N21     29.91S
#KENNEWICK 3S   N/A         74  44  34  CALM    29.95R
#PATERSON       N/A         75  45  34  N20G28  29.93R
#SAGEMOOR 2W    N/A         74  41  30  NW9     29.80R
#TOUCHET 2S     N/A         74  43  33  SW6     29.92R
#WEST PASCO     N/A         77  45  32  NW7     30.00R
$$

WAZ029-300210-
FOOTHILLS OF THE BLUES...WASHINGTON

CITY            SKY/WX      TMP DP  RH  WIND    PRES   REMARKS
WALLA WALLA AP  SUNNY       73  38  28  SW14    29.98S
#CLYDE 6NW      N/A         73  42  33  SW13    29.91S
#DAYTON SCHOOL  N/A         71  31  23  E7      29.99S
#LOWDEN 2SE     N/A         75  45  34  W7      29.92R
#PLEASANT VIEW 1N/A         73  40  30  SW9     29.96S
#PRESCOTT       N/A         75  45  34  SW5     29.92F
#SUDBURY        N/A         62  N/A N/A CALM    N/A
#WHITMAN COLLEGEN/A         74  42  32  W13     29.99S
#WAITSBURG 5S   N/A         70  42  36  W6      30.04R
#WAITSBURG 8N   N/A         72  20  14  S5      29.79S
#WALLA WALLA U  N/A         76  40  27  CALM    29.94R
#WHITMAN MISSIONN/A         75  42  31  SW7     29.95S
$$

WAZ030-300210-
BLUE MOUNTAINS...WASHINGTON

CITY            SKY/WX      TMP DP  RH  WIND    PRES   REMARKS
#DIXIE 5SE      N/A         64  37  37  W13     29.96S
$$

ORZ009-041-WAZ024-300210-
COLUMBIA RIVER GORGE

CITY            SKY/WX      TMP DP  RH  WIND    PRES   REMARKS
HOOD RIVER AP   PTCLDY      66  43  43  W6      30.11R
THE DALLES AP   SUNNY       71  40  32  W26G35  30.06R
#ARLINGTON AIRPON/A         69  43  39  W20     30.00S
#CELILO DOT     N/A         71  43  36  SW16    N/A
#LYLE           N/A         67  46  47  W15G33  30.08R
#MARYHILL 2W    N/A         66  43  43  W12     N/A
#MOSIER 1S      N/A         66  32  28  W8      30.06S
#MURDOCK        N/A         67  48  50  W18G26  30.02R
#RUFUS DOT      N/A         71  43  36  W28     N/A
#SMITHVILLE     N/A         70  45  41  W21G30  29.95F

$$

ORZ510-300210-
NORTH CENTRAL OREGON

CITY            SKY/WX      TMP DP  RH  WIND    PRES   REMARKS
#ANTELOPE       N/A         64  40  41  N7      29.87R
#CHENOWITH 1W   N/A         62  41  46  NW35    N/A
#COW CYN RST AREN/A         63  N/A N/A NW13    N/A
#DUFUR 9E       N/A         60  41  49  NW30G40 30.11R
#GRASS VALLEY   N/A         60  39  46  NW6     N/A
#GRASS VALLEY 1SN/A         63  41  44  NW13    30.03R
#KENT DOT       N/A         63  32  31  N16     N/A
#MAUPIN SCHOOL  N/A         69  43  39  W8      30.09R
#MORO SCHOOL    N/A         64  45  50  NW15G24 30.08R
#SHANIKO 4NW    N/A         58  -50  1  NW21G30 30.10R
#TYGH VALLEY 2NEN/A         68  43  40  SW10    30.03R
#WAPANITIA AIRPON/A         64  40  41  W15     30.04R
#WASCO DOT      N/A         67  40  37  W20     N/A
#WASCO AIRPORT  N/A         67  38  34  W22     N/A
#WASCO 5NE      N/A         65  44  46  W12G25  30.03R
$$

ORZ511-300210-
CENTRAL OREGON

CITY            SKY/WX      TMP DP  RH  WIND    PRES   REMARKS
BEND AIRPORT    SUNNY       66  36  33  NW16    30.07R
MADRAS AIRPORT  SUNNY       73  43  34  N21G28  30.08R
PRINEVILLE AP   SUNNY       68  34  28  W18     30.07R
REDMOND AIRPORT SUNNY       70  32  24  NW18    30.06R
#ASHWOOD SCHOOL N/A         68  41  37  N10     30.01R
#BEND 1SW       N/A         66  34  30  NW3     N/A
#BEND-AWBREY    N/A         69  36  30  NW3     29.99R
#BEND-KIM LN    N/A         68  36  31  N6      30.04S
#CULVER         N/A         70  37  30  W2      29.96R
#CULVER 8W      N/A         68  36  31  SW2     30.07R
#LAKE BILLY CHINN/A         71  N/A N/A W6      30.10R
#MADRAS 4S      N/A         67  14  13  N15     30.13R
#POWELL BUTTE 3EN/A         69  40  35  NW12    N/A
#POWELL BUTTE   N/A         68  42  39  N10     29.95R
#PRINEVILLE 3N  N/A         68  44  42  NW6     29.97R

$$


ORZ509-300210-
EAST SLOPES OF OREGON CASCADES

CITY            SKY/WX      TMP DP  RH  WIND    PRES   REMARKS
SISTERS AWOS    N/A         64  39  40  W22G31  30.05S
#BLUE BOX PASS  N/A         50  N/A N/A NW2     N/A
#CAMP SHERMAN   N/A         64  36  35  N2      30.14R
#LA PINE DOT    N/A         65  22  19  NW12    N/A
#LA PINE 4NW    N/A         64  38  38  N2      30.06R
#LAVA BUTTE DOT N/A         66  29  25  SW3     N/A
#SISTERS AIRPOR N/A         65  48  54  N15G28  30.17S
#SISTERS ODOT   N/A         67  N/A N/A S8      N/A
#SISTERS 1NW    N/A         66  37  34  NW13    N/A
#SISTERS 3N     N/A         66  37  34  W3      30.06S
#SUNRIVER       N/A         65  38  37  SW5     30.03R
#SUTTLE LK DOT  N/A         56  38  51  W22G41  N/A
#TUMALO 3W      N/A         64  34  33  N15     29.87R
#WANOGA BUTTE D N/A         55  31  40  W9      N/A

$$

ORZ044-300210-
LOWER COLUMBIA BASIN...OREGON

CITY            SKY/WX      TMP DP  RH  WIND    PRES   REMARKS
HERMISTON       SUNNY       77  38  24  W20G29  29.97R
#BOARDMAN SCHOOLN/A         74  44  34  W13     29.96S
#BOARDMAN 8SW   N/A         73  46  38  SW17    29.96F
#ECHO 8SW       N/A         74  40  29  W17     29.98S
#I-84 EX 198 DOTN/A         74  39  28  E22     N/A
#IRRIGON 4NW    N/A         29  23  78  NW7     N/A
#UMATILLA SCHOOLN/A         75  52  45  W14     30.01R
#UMATILLA       N/A         75  41  29  SW12    29.88S
$$

ORZ507-300210-
NORTHERN FOOTHILLS OF THE BLUES

CITY            SKY/WX      TMP DP  RH  WIND    PRES   REMARKS
PENDLETON AIRPT SUNNY       74  32  21  W22     29.99R
#ADAMS 3WNW     N/A         71  34  26  W15     29.96S
#ATHENA         N/A         70  35  28  SW3     29.99R
#CAYUSE         N/A         71  36  28  W21G28  29.94F
#HELIX SCHOOL   N/A         71  34  26  W6G26   29.97R
#HELIX 3N       N/A         68  35  29  W18G26  29.98R
#HELIX 6SW      N/A         71  35  27  W16G24  29.99R
#HOLDMAN 5SE    N/A         72  39  30  W12     29.99R
#HOLDMAN 6E     N/A         71  34  26  E10     29.77S
#M-F GROVE ELEM N/A         74  30  20  W6      29.96S
#M-FREEWATER 5SEN/A         72  39  30  W7      29.98S
#PENDLETON DNTN N/A         75  38  26  SW3     30.01S
#PDT AQUATIC CTRN/A         76  35  22  W10     30.02S
#PDT SUNRIDGE   N/A         74  35  24  W12     30.00R
#PENDLETON 7NW  N/A         73  44  35  W15G25  31.97S
#PILOT ROCK 1S  N/A         72  36  27  W7      30.01R
#PILOT ROCK     N/A         73  40  30  W3      30.03R
#TUTUILLA       N/A         73  38  28  CALM    29.98R
#UMAPINE 2E     N/A         76  41  28  W5      29.94R
#WESTON SCHOOL  N/A         70  32  24  N6      29.88R

$$

ORZ508-300210-
SOUTHERN FOOTHILLS OF THE BLUES

CITY            SKY/WX      TMP DP  RH  WIND    PRES   REMARKS
LEXINGTON       SUNNY       70  37  30  W17G25  30.07R
#AJAX           N/A         64  34  33  SW15    27.82R
#CONDON SCHOOL  N/A         62  40  44  NW10    30.03R
#CONDON 5W      N/A         59  35  40  NW15    30.06R
#FOSSIL SCHOOL  N/A         67  42  40  N5      30.01R
#HEPPNER EOC    N/A         67  38  34  NW14G24 29.93R
#HEPPNER 4NE    N/A         63  38  39  W15     29.99R
#LEXINGTON 2SE  N/A         70  38  31  NW18    29.98S
#OLEX 4N        N/A         68  42  39  W21G30  30.02R
#RUGGS 5NE      N/A         65  37  35  W16     30.20S
#RUGGS 2SW      N/A         65  37  35  W15     30.01R

$$

ORZ502-503-300210-
BLUE MOUNTAINS

CITY            SKY/WX      TMP DP  RH  WIND    PRES   REMARKS
MEACHAM         SUNNY       64  29  27  MISG    30.07S
#BATTLE MTN DOT N/A         60  44  55  CALM    N/A
#CUTSFORTH PARK N/A         60  41  49  NE1     29.86R
#GREENHORN 9SW  N/A         68  34  28  NW3     26.21S
#HARDMAN 10S    N/A         61  34  36  N5      30.22R
#HEPPNER 15SE   N/A         57  39  51  NW3     30.00R
#LADD CYN SMT   N/A         66  34  30  NW16    N/A
#LADD CREEK ODOTN/A         68  41  37  NE8     N/A
#LONG CREEK HS  N/A         67  40  37  CALM    N/A
#N POWDER DOT   N/A         68  43  40  NE17    N/A
#PIKES PEAK     N/A         60  31  33  SW22G33 27.99S
#TOLLGATE       N/A         55  35  47  S6      29.95R
#TROY SCHOOL    N/A         76  43  31  W5      29.76R
#UKIAH          N/A         64  45  50  NW12    29.89R
#WESTON 4E      N/A         63  38  39  SW10    29.95R
$$

ORZ505-300210-
JOHN DAY BASIN

CITY            SKY/WX      TMP DP  RH  WIND    PRES   REMARKS
JOHN DAY        N/A         N/A N/A N/A MISG    N/A
#DAYVILLE SCHOOLN/A         76  31  19  N7      29.96R
#MITCHELL       N/A         70  46  42  N5      30.19R
#MITCHELL 8NW   N/A         68  39  35  N1      30.15R
#MONUMENT HS    N/A         73  39  29  VRB9    29.94R
#MT. VERNON 5SE N/A         69  35  28  W5      29.98S
#SPRAY SCHOOL   N/A         76  N/A N/A CALM    N/A
#WINLOCK        N/A         N/A N/A N/A NW14    30.01R
$$

ORZ506-300210-
OCHOCO AND JOHN DAY HIGHLANDS

CITY            SKY/WX      TMP DP  RH  WIND    PRES   REMARKS
#BUCK CREEK DOT N/A         71  34  26  W15     N/A
#HORSE RIDGE DO N/A         66  33  29  N10     N/A
#KEYES SMT DOT  N/A         64  37  37  W10     N/A
#PAULINA SCHOOL N/A         71  27  19  W13     N/A
#PINE MTN OBS   N/A         56  35  45  NW3     N/A
#SENECA         N/A         68  N/A N/A N7      N/A
#SENECA 9NW     N/A         65  36  34  CALM    29.96R
$$

ORZ049-300210-
GRANDE RONDE VALLEY

CITY            SKY/WX      TMP DP  RH  WIND    PRES   REMARKS
LA GRANDE       PTCLDY      70  34  26  N15     30.01R
#COVE           N/A         69  49  49  N7      30.04R
#COVE SCHOOL    N/A         69  46  44  NW1     30.03R
#COVE 6NW       N/A         68  43  40  N8      29.89R
#ELGIN 3N       N/A         68  24  19  W6      30.00R
#ELGIN 1E       N/A         69  38  32  W3      N/A
#IMBLER SCHOOL  N/A         67  38  34  W12     29.97R
#ISLAND CITY 4N N/A         68  49  51  CALM    30.16S
#LADD CYN DOT   N/A         69  43  39  NW15    N/A
#UNION 1S       N/A         71  44  38  NW5     29.85R
$$

ORZ050-300210-
WALLOWA COUNTY

CITY            SKY/WX      TMP DP  RH  WIND    PRES   REMARKS
JOSEPH AIRPORT  THUNDER     64  41  43  N7      N/A
#ENTERPRISE AP  N/A         49  29  46  CALM    29.96R
#ENTERPRISE HS  N/A         65  44  46  NW8     30.02R
#IMNAHA SCHOOL  N/A         74  45  35  NW2     29.94R
#IMNAHA 10S     N/A         66  51  58  NW2     29.97R
#JOSEPH 3N      N/A         63  40  43  NW14    30.05R
#JOSEPH 3W      N/A         60  46  60  CALM    29.89R
#LOSTINE 3SE    N/A         66  42  42  N7      30.01R
#MT HOWARD 8000 N/A         43  38  82  N5      30.19S
#PROMISE 1S     N/A         63  39  41  E13     30.08R
#WALLOWA SCHOOL N/A         68  42  39  W2      29.98R



$$



USA.gov is the U.S. government's official web portal to all federal, state and local government web resources and services.